Flag Weather past 2 weeks in Thiruvananthapuram, Kerala, India

Now
79 °F

Partly cloudy.


Feels Like: 82 °F
Forecast: 78 / 85 °F
Wind: No wind

Location: Thiruvananthapuram

Current Time: Nov 24, 2014 at 7:06:35 AM

Latest Report: Nov 24, 2014 at 6:10 AM


Visibility: 2 mi

Pressure: 29.80 "Hg

Humidity: 89%

Dew point: 75 °F

Location of ThiruvananthapuramLocation

Historic Weather in Thiruvananthapuram — Graph

°F

Thiruvananthapuram temperature yesterday

Maximum temperature yesterday: 84 °F (at 11:40 AM)
Minimum temperature yesterday: 77 °F (at 12:10 AM)
Average temperature yesterday: 80 °F

Past Weeks' High & Low Weather Summary

 TemperatureHumidityPressure
High90 °F (Nov 9, 10:40 AM)94% (Nov 13, 5:40 AM)29.92 "Hg (Nov 13, 5:40 AM)
Low75 °F (Nov 9, 5:40 AM)59% (Nov 20, 11:40 AM)29.68 "Hg (Nov 12, 3:40 PM)
Average82 °F80%29.81 "Hg
* Reported Nov 9 5:40 AM — Nov 24 5:40 AM, Thiruvananthapuram, Weather by CustomWeather, © 2014

Note: Actual official high and low records may vary slightly from our data, if they occured in-between our weather recording intervals... More about our weather records

Advertising

Thiruvananthapuram weather history for previous 24 hours

 ConditionsComfort  
Time TempWeatherWind HumidityBarometerVisibility
5:40 AM
Nov 24
77 °FPartly cloudy.No wind94%29.77 "Hg2 mi
5:10 AM77 °FPartly cloudy.No wind94%29.77 "Hg2 mi
3:40 AM79 °FPartly cloudy.No wind84%29.74 "Hg2 mi
3:10 AM79 °FPartly cloudy.No wind84%29.74 "Hg2 mi
2:40 AM79 °FPartly cloudy.No wind84%29.74 "Hg2 mi
2:10 AM79 °FPartly cloudy.No wind84%29.77 "Hg2 mi
1:40 AM79 °FPartly cloudy.No wind84%29.77 "Hg2 mi
1:10 AM79 °FPartly cloudy.No wind84%29.77 "Hg2 mi
12:40 AM79 °FPartly cloudy.No wind84%29.80 "Hg2 mi
12:10 AM79 °FPassing clouds.No wind89%29.80 "Hg2 mi
11:40 PM
Nov 23
79 °FPassing clouds.No wind89%29.80 "Hg2 mi
11:10 PM79 °FPassing clouds.No wind89%29.80 "Hg2 mi
9:40 PM79 °FPassing clouds.No wind89%29.83 "Hg2 mi
9:10 PM81 °FPassing clouds.No wind84%29.80 "Hg2 mi
8:40 PM81 °FPartly cloudy.No wind84%29.80 "Hg2 mi
8:10 PM81 °FPartly cloudy.No wind84%29.80 "Hg2 mi
7:40 PM81 °FPartly cloudy.3 mph84%29.77 "Hg2 mi
5:40 PM81 °FBroken clouds.8 mph89%29.71 "Hg2 mi
5:10 PM81 °FBroken clouds.9 mph89%29.71 "Hg3 mi
4:40 PM82 °FBroken clouds.6 mph84%29.71 "Hg3 mi
4:10 PM82 °FBroken clouds.5 mph84%29.71 "Hg3 mi
3:40 PM82 °FBroken clouds.7 mph84%29.71 "Hg3 mi
3:10 PM82 °FBroken clouds.6 mph84%29.74 "Hg3 mi
2:40 PM84 °FBroken clouds.7 mph79%29.74 "Hg3 mi
2:10 PM84 °FBroken clouds.5 mph79%29.74 "Hg3 mi
1:10 PM82 °FBroken clouds.No wind84%29.80 "Hg3 mi
12:40 PM84 °FBroken clouds.5 mph79%29.83 "Hg3 mi
11:40 AM84 °FScattered clouds.5 mph79%29.86 "Hg3 mi
11:10 AM82 °FScattered clouds.5 mph84%29.86 "Hg3 mi
10:40 AM82 °FScattered clouds.6 mph84%29.86 "Hg3 mi
9:40 AM82 °FScattered clouds.2 mph84%29.86 "Hg2 mi
9:10 AM82 °FScattered clouds.2 mph84%29.86 "Hg2 mi
8:40 AM81 °FScattered clouds.No wind84%29.86 "Hg2 mi
7:40 AM77 °FBroken clouds.No wind94%29.83 "Hg2 mi
Weather by CustomWeather, © 2014

See weather overviewHow to use our weather pages